Regional Weather Roundup
Issued by NWS

Home | Current Version | Previous Version | Graphics & Text | Print | Product List | Glossary On
Versions: 1 2 3 4 5 6 7 8 9 10 11 12 13 14 15 16 17 18 19 20 21 22 23 24 25 26 27 28 29 30 31 32 33 34 35 36 37 38 39 40 41 42 43 44 45 46 47 48 49 50
000
ASUS43 KLMK 240902
RWRKY
KENTUCKY REGIONAL WEATHER ROUNDUP
NATIONAL WEATHER SERVICE LOUISVILLE KY
500 AM EDT MON APR 24 2017

NOTE "FAIR" INDICATES FEW OR NO CLOUDS BELOW 12,000 FEET
WITH NO SIGNIFICANT WEATHER AND/OR OBSTRUCTIONS TO VISIBILITY.

KYZ001>023-026-027-061>063-070>075-241000-
WESTERN AND SOUTH CENTRAL KENTUCKY

CITY           SKY/WX    TMP DP  RH WIND       PRES   REMARKS
PADUCAH        CLEAR     49  42  77 NW3       29.88S
HENDERSON      CLEAR     53  40  61 N8        29.89S
OWENSBORO      CLOUDY    55  39  54 N6        29.89R
HOPKINSVILLE   CLOUDY    52  49  87 N8        29.84S
BOWLING GREEN  CLOUDY    54  51  90 N3        29.84R
GLASGOW        NOT AVBL
$$

KYZ024-025-028>034-038-045-046-053-241000-
NORTH CENTRAL KENTUCKY

CITY           SKY/WX    TMP DP  RH WIND       PRES   REMARKS
LOUISVILLE/SDF CLOUDY    55  45  68 N8        29.87S
LOUISVILLE/LOU CLOUDY    56  44  64 N5        29.89R
FORT KNOX      CLOUDY    55  46  72 NE7       29.85R
$$

KYZ035>037-039>044-047>052-055>060-089>105-241000-
NORTHEAST KENTUCKY

CITY           SKY/WX    TMP DP  RH WIND       PRES   REMARKS
LEXINGTON      CLOUDY    55  45  68 NE8       29.87F
COVINGTON      PTCLDY    51  37  58 N10       29.92S
FRANKFORT      CLOUDY    58  43  57 NE5       29.87S
$$

KYZ054-064>069-076>088-106>120-241000-
SOUTHEAST KENTUCKY

CITY           SKY/WX    TMP DP  RH WIND       PRES   REMARKS
JACKSON        CLOUDY    50  48  93 VRB3      29.85F
LONDON         CLOUDY    52  48  86 NE8       29.84F
SOMERSET       CLOUDY    52  50  93 E6        29.85F
MIDDLESBORO    CLOUDY    51  51 100 CALM      29.83S
MONTICELLO     CLOUDY    53  51  93 NW9       29.84F
$$





USA.gov is the U.S. government's official web portal to all federal, state and local government web resources and services.